Weather in Brinkovskaya

Russia / Krasnodar Krai     46°02′07″N   38°35′10″E
temp.,
°C
wind,
m/s
gust,
m/s
humid.,
%
clouds,
%
prec.,
mm/h
press.,
hPa
HPBL,
m
8 august, mon
mon800:00+25nne35361 0.0 101182
03:00+22ne34361 0.0 101156
06:00+22e35400 0.0 101397
09:00+31e57250 0.0 1013979
12:00+35ene79180 0.0 10133022
15:00+36ene89150 0.0 10113203
18:00+35e810150 0.0 10113089
21:00+28ene513220 0.0 1012225
9 august, tue
tue900:00+25ese35270 0.0 101367
03:00+23ene45370 0.0 101373
06:00+23ene47370 0.0 1014122
09:00+31e68220 0.0 1013715
12:00+36ene79150 0.0 10122938
15:00+37ene810150 0.0 10103109
18:00+36ene810160 0.0 10103068
21:00+30ene513230 0.0 1010264
10 august, wed
wed1000:00+26ne511300 0.0 1010196
03:00+24ene511310 0.0 1010177
06:00+24ene613341 0.0 1010252
09:00+32e914210 0.0 10101577
12:00+36e1013160 0.0 10082492
15:00+37e911140 0.0 10072980
18:00+36e810160 0.0 10062953
21:00+31ene714254 0.0 1007443
11 august, thu
thu1100:00+29e71528100 0.0 1007470
03:00+27e5113377 0.0 1008331
06:00+26ene5113848 0.0 1009490
09:00+30e81231100 0.0 10091133
12:00+33e8102699 0.0 10091710
15:00+37ene9102040 0.0 10082766
18:00+36ne81221100 0.0 10072354
21:00+30ne7153496 0.3 1007380
12 august, fri
fri1200:00+31e7143441 0.5 1008616
03:00+28e6133996 0.7 1009461
06:00+24ene6125499 0.3 1011374
09:00+29e8113660 0.3 1011972
12:00+35e101222100 0.1 10111948
15:00+36ene7112235 0.1 10102155
18:00+38e810191 0.0 10082881
21:00+33ene917220 0.0 1009582